User: anonymous   Login
Location: Abraham Lincoln Continuation High School
(33.9711°N, 117.3662°W)
Time: 22:27:41
(UTC+00:00)
Language:

Cosmos 1980 Rocket - Orbit

View from above orbital plane
View from above orbital plane
View from above satellite
View from above satellite

Ground track
Ground track

The orbit data is extracted from the following two-line orbital elements,

1 19650U 88102B   20327.88846750 -.00000252 +00000-0 -10378-3 0  9993
2 19650 071.0007 256.7495 0011943 069.4404 290.8000 14.15795882653307
Epoch (UTC): 22 November 2020 21:19:23
Eccentricity: 0.0011943
inclination: 71.0007°
perigee height: 831 km
apogee height: 848 km
right ascension of ascending node: 256.7495°
argument of perigee: 69.4404°
revolutions per day: 14.15795882
mean anomaly at epoch: 290.8000°
orbit number at epoch: 65330

The dashed part of the orbit path shows where the satellite is in the earth's shadow,  

DLR